EW6800 Weather Reports


time (UTC)temp
F
wind
direction
speed
knots
gust
knots
rain 1hr
in
rain 24hr
in
rain mn
in
humidity
%
barometer
mb
20260510205044 65 320 1.7 4.3 0.00 0.00 0.00 81 1015.7
20260510204547 64 320 1.7 4.3 0.00 0.00 0.00 82 1015.7
20260510204044 64 310 1.7 4.3 0.00 0.00 0.00 84 1015.8
20260510203544 63 311 2.6 4.3 0.00 0.00 0.00 86 1015.8
20260510203051 63 311 2.6 4.3 0.00 0.00 0.00 88 1015.9
20260510202545 62 313 1.7 4.3 0.00 0.00 0.00 89 1016.0
20260510202044 62 304 2.6 4.3 0.00 0.00 0.00 91 1016.0
20260510201550 61 313 1.7 4.3 0.00 0.00 0.00 93 1016.0
20260510201044 60 310 1.7 3.5 0.00 0.00 0.00 95 1016.0
20260510200544 60 306 1.7 4.3 0.00 0.00 0.00 96 1016.1
20260510200052 59 305 1.7 4.3 0.00 0.00 0.00 96 1016.1
20260510195544 59 315 1.7 3.5 0.00 0.00 0.00 97 1016.2
20260510195046 58 315 2.6 3.5 0.00 0.00 0.00 97 1016.2
20260510194553 58 309 0.9 4.3 0.00 0.00 0.00 97 1016.2
20260510194045 57 309 1.7 4.3 0.00 0.00 0.00 97 1016.2
20260510193545 57 308 2.6 4.3 0.00 0.00 0.00 97 1016.2
20260510193052 57 298 1.7 4.3 0.00 0.00 0.00 97 1016.2
20260510192544 56 305 1.7 4.3 0.00 0.00 0.00 97 1016.3
20260510192045 56 305 1.7 4.3 0.00 0.00 0.00 97 1016.3
20260510191551 55 309 1.7 6.1 0.00 0.00 0.00 97 1016.3
20260510191040 55 311 2.6 6.1 0.00 0.00 0.00 97 1016.4
20260510190540 55 306 2.6 5.2 0.00 0.00 0.00 97 1016.4
20260510190052 54 317 1.7 6.1 0.00 0.00 0.00 97 1016.3
20260510185542 54 313 2.6 6.1 0.00 0.00 0.00 97 1016.4
20260510185041 54 300 1.7 6.1 0.00 0.00 0.00 97 1016.4
20260510184612 53 307 1.7 6.1 0.00 0.00 0.00 97 1016.5
20260510184046 53 304 2.6 4.3 0.00 0.00 0.00 97 1016.4
20260510183543 53 301 1.7 5.2 0.00 0.00 0.00 97 1016.4
20260510183049 53 303 1.7 6.1 0.00 0.00 0.00 96 1016.4
20260510182545 53 303 2.6 6.1 0.00 0.00 0.00 97 1016.4
20260510182043 53 300 2.6 7.0 0.00 0.00 0.00 97 1016.3
20260510181557 52 311 3.5 7.0 0.00 0.00 0.00 97 1016.3
20260510181043 52 317 2.6 7.0 0.00 0.00 0.00 97 1016.3
20260510180543 52 309 1.7 4.3 0.00 0.00 0.00 96 1016.2
20260510180105 52 311 2.6 5.2 0.00 0.00 0.00 97 1016.1
20260510175542 52 323 2.6 5.2 0.00 0.00 0.00 97 1016.2
20260510175043 52 320 2.6 5.2 0.00 0.00 0.00 96 1016.2
20260510174547 51 306 1.7 5.2 0.00 0.00 0.00 97 1016.1
20260510174044 51 315 2.6 6.1 0.00 0.00 0.00 96 1016.1
20260510173543 51 314 2.6 6.1 0.00 0.00 0.00 96 1016.1
20260510173048 51 313 2.6 7.0 0.00 0.00 0.00 97 1016.1
20260510172543 50 313 3.5 7.0 0.00 0.00 0.00 97 1016.0
20260510172043 50 311 3.5 7.8 0.00 0.00 0.00 97 1016.0
20260510171608 50 309 2.6 7.8 0.00 0.00 0.00 96 1015.9
20260510171047 50 303 4.3 7.8 0.00 0.00 0.00 96 1015.9
20260510170545 50 317 4.3 7.8 0.00 0.00 0.00 96 1016.0
20260510170050 50 302 3.5 7.8 0.00 0.00 0.00 97 1015.8
20260510165543 49 306 3.5 7.0 0.00 0.00 0.00 96 1015.9
20260510165042 49 313 3.5 7.0 0.00 0.00 0.00 96 1015.9
20260510164551 49 317 3.5 7.0 0.00 0.00 0.00 96 1015.9
20260510164042 49 299 4.3 7.8 0.00 0.00 0.00 96 1015.8
20260510163545 49 311 4.3 8.7 0.00 0.00 0.00 96 1015.8
20260510163047 49 310 5.2 8.7 0.00 0.00 0.00 96 1015.9
20260510162542 49 305 4.3 8.7 0.00 0.00 0.00 96 1015.8
20260510162042 49 320 4.3 8.7 0.00 0.00 0.00 96 1015.8
20260510161544 49 306 4.3 8.7 0.00 0.00 0.00 96 1015.6
20260510161044 49 309 5.2 8.7 0.00 0.00 0.00 96 1015.7
20260510160546 49 305 5.2 7.8 0.00 0.00 0.00 96 1015.6
20260510155544 49 312 4.3 7.8 0.00 0.00 0.00 96 1015.6
20260510155045 49 296 3.5 7.0 0.00 0.00 0.00 96 1015.6
20260510154619 49 311 4.3 8.7 0.00 0.00 0.00 96 1015.6
20260510154045 48 304 4.3 8.7 0.00 0.00 0.00 96 1015.5
20260510153546 48 311 5.2 7.8 0.00 0.00 0.00 96 1015.4
20260510153101 48 321 4.3 7.8 0.00 0.00 0.00 96 1015.6
20260510152546 48 312 4.3 7.8 0.00 0.00 0.00 96 1015.6
20260510152047 47 311 4.3 9.6 0.00 0.00 0.00 96 1015.6
20260510151554 47 312 3.5 9.6 0.00 0.00 0.00 96 1015.5
20260510151046 47 316 5.2 9.6 0.00 0.00 0.00 96 1015.3
20260510150545 47 295 5.2 9.6 0.00 0.00 0.00 96 1015.3
20260510145544 47 305 5.2 10.4 0.00 0.00 0.00 96 1015.3
20260510145044 47 319 6.1 10.4 0.00 0.00 0.00 96 1015.3
20260510144608 47 300 6.1 10.4 0.00 0.00 0.00 96 1015.2
20260510144043 46 306 6.1 9.6 0.00 0.00 0.00 96 1015.1
20260510143543 46 302 7.0 9.6 0.00 0.00 0.00 96 1015.1
20260510143050 46 294 6.1 9.6 0.00 0.00 0.00 96 1015.1
20260510142543 46 305 5.2 10.4 0.00 0.00 0.00 96 1015.1
20260510142043 46 299 6.1 10.4 0.00 0.00 0.00 96 1015.0
20260510141550 46 296 6.1 8.7 0.00 0.00 0.00 96 1015.0
20260510141047 46 304 5.2 8.7 0.00 0.00 0.00 96 1014.8
20260510140543 46 315 5.2 8.7 0.00 0.00 0.00 96 1014.9
20260510140056 46 314 5.2 10.4 0.00 0.00 0.00 96 1014.8
20260510135544 46 309 5.2 10.4 0.00 0.00 0.00 96 1014.7
20260510135047 46 301 5.2 8.7 0.00 0.00 0.00 96 1014.7
20260510134551 46 310 5.2 8.7 0.00 0.00 0.00 96 1014.6
20260510134045 46 316 4.3 9.6 0.00 0.00 0.00 96 1014.5
20260510133543 46 295 5.2 9.6 0.00 0.00 0.00 96 1014.5
20260510133052 46 287 4.3 9.6 0.00 0.00 0.00 96 1014.6
20260510132544 46 301 4.3 7.8 0.00 0.00 0.00 96 1014.6
20260510132044 46 315 4.3 8.7 0.00 0.00 0.00 96 1014.4
20260510131553 46 303 4.3 8.7 0.00 0.00 0.00 96 1014.5
20260510131046 46 300 4.3 8.7 0.00 0.00 0.00 96 1014.5
20260510130545 46 305 4.3 8.7 0.00 0.00 0.00 96 1014.5
20260510130051 46 315 4.3 8.7 0.00 0.00 0.00 96 1014.4
20260510125542 46 302 4.3 11.3 0.00 0.00 0.00 96 1014.5
20260510125042 46 299 5.2 11.3 0.00 0.00 0.00 96 1014.5
20260510124551 46 297 3.5 9.6 0.00 0.00 0.00 96 1014.5
20260510124043 46 314 5.2 9.6 0.00 0.00 0.00 96 1014.5
20260510123544 46 293 4.3 9.6 0.00 0.00 0.00 96 1014.6
20260510123055 46 294 4.3 9.6 0.00 0.00 0.00 96 1014.5
20260510122539 46 294 5.2 8.7 0.00 0.00 0.00 96 1014.5
20260510122042 46 289 4.3 7.8 0.00 0.00 0.00 96 1014.5
20260510121549 46 318 4.3 9.6 0.00 0.00 0.00 96 1014.5
20260510121041 46 307 4.3 9.6 0.00 0.00 0.00 96 1014.6
20260510120544 46 296 4.3 7.8 0.00 0.00 0.00 96 1014.7
20260510120051 46 311 4.3 7.8 0.00 0.00 0.00 96 1014.7
20260510115541 46 299 3.5 7.8 0.00 0.00 0.00 96 1014.7
20260510115041 46 311 3.5 7.8 0.00 0.00 0.00 96 1014.7
20260510114554 46 313 3.5 7.8 0.00 0.00 0.00 96 1014.7
20260510114042 46 313 4.3 8.7 0.00 0.00 0.00 96 1014.7
20260510113543 46 287 5.2 9.6 0.00 0.00 0.00 96 1014.7
20260510113048 46 309 5.2 9.6 0.00 0.00 0.00 96 1014.7
20260510112540 46 320 3.5 8.7 0.00 0.00 0.00 96 1014.6
20260510112041 46 315 4.3 8.7 0.00 0.00 0.00 96 1014.6
20260510111551 46 313 4.3 8.7 0.00 0.00 0.00 96 1014.5
20260510111041 46 310 5.2 8.7 0.00 0.00 0.00 96 1014.4
20260510110549 46 309 5.2 10.4 0.00 0.00 0.00 96 1014.5
20260510110045 46 317 5.2 10.4 0.00 0.00 0.00 96 1014.4
20260510105543 46 301 6.1 10.4 0.00 0.00 0.00 96 1014.4
20260510105041 46 317 6.1 10.4 0.00 0.00 0.00 96 1014.4
20260510104555 46 302 7.0 10.4 0.00 0.00 0.00 96 1014.3
20260510104044 46 302 6.1 9.6 0.00 0.00 0.00 96 1014.4
20260510103543 46 298 5.2 9.6 0.00 0.00 0.00 96 1014.4
20260510103048 46 311 6.1 9.6 0.00 0.00 0.00 96 1014.4
20260510102540 46 309 6.1 8.7 0.00 0.00 0.00 96 1014.3
20260510102040 46 312 5.2 8.7 0.00 0.00 0.00 96 1014.5
20260510101553 46 312 5.2 9.6 0.00 0.00 0.00 96 1014.4
20260510101044 46 305 6.1 9.6 0.00 0.00 0.00 96 1014.4
20260510100543 46 296 5.2 10.4 0.00 0.00 0.00 96 1014.4
20260510100211 46 309 6.1 10.4 0.00 0.00 0.00 96 1014.4
20260510095545 46 296 6.1 9.6 0.00 0.00 0.00 96 1014.3
20260510095044 46 310 6.1 9.6 0.00 0.00 0.00 96 1014.4
20260510094605 46 315 6.1 9.6 0.00 0.00 0.00 96 1014.3
20260510094044 46 295 6.1 9.6 0.00 0.00 0.00 96 1014.4
20260510093544 46 300 6.1 9.6 0.00 0.00 0.00 96 1014.4
20260510093055 46 306 6.1 9.6 0.00 0.00 0.00 96 1014.5
20260510092551 46 317 5.2 9.6 0.00 0.00 0.00 96 1014.5
20260510092045 46 316 6.1 9.6 0.00 0.00 0.00 96 1014.6
20260510091555 46 315 6.1 9.6 0.00 0.00 0.00 96 1014.6
20260510091047 46 321 6.1 9.6 0.00 0.00 0.00 96 1014.6
20260510090548 46 299 7.0 9.6 0.00 0.00 0.00 96 1014.6
20260510090056 46 302 6.1 9.6 0.00 0.00 0.00 96 1014.6
20260510085544 46 310 5.2 8.7 0.00 0.00 0.00 96 1014.7
20260510085044 46 306 4.3 8.7 0.00 0.00 0.00 96 1014.7
20260510084600 46 313 5.2 8.7 0.00 0.00 0.00 96 1014.8
20260510084044 46 306 6.1 8.7 0.00 0.00 0.00 96 1014.8
20260510083545 46 291 4.3 9.6 0.00 0.00 0.00 96 1014.7
20260510083112 46 302 6.1 10.4 0.00 0.00 0.00 96 1014.7
20260510082544 46 325 6.1 10.4 0.00 0.00 0.00 96 1014.7
20260510082044 47 338 6.1 10.4 0.00 0.00 0.00 96 1014.9
20260510081627 46 308 5.2 8.7 0.00 0.00 0.00 96 1014.9
20260510081044 46 309 4.3 8.7 0.00 0.00 0.00 96 1014.9
20260510080547 46 314 5.2 8.7 0.00 0.00 0.00 96 1014.8
20260510080056 47 294 4.3 8.7 0.00 0.00 0.00 96 1014.8
20260510075544 46 300 5.2 9.6 0.00 0.00 0.00 96 1015.0
20260510075044 46 306 5.2 9.6 0.00 0.00 0.00 96 1015.0
20260510074556 47 296 6.1 8.7 0.00 0.00 0.00 96 1015.1
20260510074046 47 307 4.3 7.8 0.00 0.00 0.00 96 1015.1
20260510073544 47 305 5.2 7.8 0.00 0.00 0.00 96 1015.1
20260510073053 47 312 4.3 7.8 0.00 0.00 0.00 96 1015.1
20260510072544 47 301 4.3 8.7 0.00 0.00 0.00 96 1015.1
20260510072043 47 304 4.3 8.7 0.00 0.00 0.00 95 1015.1
20260510071550 47 305 4.3 8.7 0.00 0.00 0.00 95 1015.1
20260510071048 47 299 4.3 7.0 0.00 0.00 0.00 96 1015.1
20260510070544 47 304 4.3 7.0 0.00 0.00 0.00 96 1015.1
20260510070053 47 306 3.5 7.0 0.00 0.00 0.00 96 1015.1
20260510065548 47 313 3.5 7.0 0.00 0.00 0.00 96 1015.0
20260510065044 47 311 3.5 7.8 0.00 0.00 0.00 96 1015.1
20260510064553 47 294 3.5 7.8 0.00 0.00 0.00 96 1015.0
20260510064044 47 304 3.5 7.0 0.00 0.00 0.00 96 1015.0
20260510063545 47 308 3.5 7.0 0.00 0.00 0.00 96 1015.1
20260510063055 47 305 3.5 7.0 0.00 0.00 0.00 96 1015.2
20260510062547 47 311 3.5 7.0 0.00 0.00 0.00 95 1015.2
20260510062045 47 304 3.5 7.0 0.00 0.00 0.00 95 1015.1
20260510061556 47 303 4.3 7.0 0.00 0.00 0.00 95 1015.1
20260510061044 47 302 3.5 7.0 0.00 0.00 0.00 95 1015.1
20260510060544 47 310 3.5 7.0 0.00 0.00 0.00 95 1015.1
20260510060053 47 297 3.5 7.0 0.00 0.00 0.00 95 1015.1
20260510055544 47 304 3.5 7.8 0.00 0.00 0.00 95 1015.2
20260510055044 47 301 3.5 7.8 0.00 0.00 0.00 95 1015.1
20260510054554 48 299 3.5 7.8 0.00 0.00 0.00 95 1015.1
20260510054044 48 296 3.5 7.8 0.00 0.00 0.00 95 1015.1
20260510053545 48 302 4.3 7.8 0.00 0.00 0.00 95 1015.2
20260510053056 48 301 3.5 7.0 0.00 0.00 0.00 95 1015.1
20260510052544 48 300 3.5 7.0 0.00 0.00 0.00 95 1015.2
20260510052044 48 299 3.5 7.0 0.00 0.00 0.00 95 1015.2
20260510051551 48 302 3.5 7.0 0.00 0.00 0.00 95 1015.1
20260510051047 48 312 3.5 7.8 0.00 0.00 0.00 95 1015.1
20260510050544 48 315 4.3 7.8 0.00 0.00 0.00 95 1015.2
20260510050055 48 298 5.2 7.8 0.00 0.00 0.00 95 1015.2
20260510045544 48 294 3.5 7.0 0.00 0.00 0.00 95 1015.2
20260510045044 48 297 3.5 6.1 0.00 0.00 0.00 95 1015.2
20260510044551 48 308 2.6 7.0 0.00 0.00 0.00 95 1015.1
20260510044044 48 298 3.5 7.0 0.00 0.00 0.00 95 1015.1
20260510043544 48 300 3.5 7.0 0.00 0.00 0.00 95 1015.1
20260510043107 48 309 3.5 7.0 0.00 0.00 0.00 95 1015.0
20260510042544 48 304 3.5 7.8 0.00 0.00 0.00 95 1015.0
20260510042047 48 300 3.5 7.8 0.00 0.00 0.00 95 1015.0
20260510041555 48 308 4.3 7.8 0.00 0.00 0.00 95 1014.8
20260510041044 48 307 3.5 7.8 0.00 0.00 0.00 95 1014.9
20260510040544 48 309 4.3 7.8 0.00 0.00 0.00 95 1014.8
20260510040104 49 299 4.3 7.8 0.00 0.00 0.00 95 1014.8
20260510035544 49 299 3.5 7.8 0.00 0.00 0.00 95 1014.8
20260510035044 49 310 4.3 7.0 0.00 0.00 0.00 95 1014.9
20260510034558 49 298 4.3 7.0 0.00 0.00 0.00 95 1014.8
20260510034045 49 305 3.5 7.8 0.00 0.00 0.00 94 1014.9
20260510033548 49 317 4.3 7.8 0.00 0.00 0.00 94 1014.8
20260510033049 49 304 4.3 7.8 0.00 0.00 0.00 94 1014.7
20260510032544 49 298 4.3 8.7 0.00 0.00 0.00 94 1014.7
20260510032044 49 295 4.3 8.7 0.00 0.00 0.00 94 1014.7
20260510031602 49 311 5.2 8.7 0.00 0.00 0.00 94 1014.7
20260510031044 49 296 4.3 8.7 0.00 0.00 0.00 94 1014.7
20260510030543 49 298 4.3 8.7 0.00 0.00 0.00 94 1014.7
20260510030052 49 306 5.2 8.7 0.00 0.00 0.00 94 1014.6
20260510025544 49 307 4.3 8.7 0.00 0.00 0.00 94 1014.5
20260510025044 49 300 4.3 8.7 0.00 0.00 0.00 93 1014.6
20260510024548 50 303 4.3 7.8 0.00 0.00 0.00 93 1014.6
20260510024044 50 293 4.3 7.8 0.00 0.00 0.00 93 1014.5
20260510023544 50 312 4.3 7.8 0.00 0.00 0.00 93 1014.5
20260510023053 50 310 3.5 8.7 0.00 0.00 0.00 92 1014.5
20260510022544 50 309 5.2 9.6 0.00 0.00 0.00 92 1014.5
20260510022044 51 302 6.1 9.6 0.00 0.00 0.00 92 1014.5
20260510021559 51 311 7.0 9.6 0.00 0.00 0.00 91 1014.5
20260510021044 51 307 6.1 10.4 0.00 0.00 0.00 91 1014.6
20260510020543 51 296 7.0 10.4 0.00 0.00 0.00 91 1014.6
20260510020051 52 309 7.0 10.4 0.00 0.00 0.00 90 1014.6
20260510015545 52 311 7.0 10.4 0.00 0.00 0.00 89 1014.6
20260510015039 53 294 7.0 10.4 0.00 0.00 0.00 88 1014.7
20260510014552 53 309 7.0 10.4 0.00 0.00 0.00 88 1014.7
20260510014043 53 321 7.0 10.4 0.00 0.00 0.00 88 1014.8
20260510013547 54 303 7.0 10.4 0.00 0.00 0.00 87 1014.8
20260510013104 54 288 7.0 10.4 0.00 0.00 0.00 87 1014.9
20260510012545 54 290 7.0 9.6 0.00 0.00 0.00 87 1014.9
20260510012043 54 313 7.0 9.6 0.00 0.00 0.00 86 1014.8
20260510011546 54 294 6.1 9.6 0.00 0.00 0.00 86 1014.9
20260510011044 55 297 7.0 10.4 0.00 0.00 0.00 86 1014.8
20260510010540 55 282 7.0 10.4 0.00 0.00 0.00 86 1014.7
20260510010051 55 302 6.1 10.4 0.00 0.00 0.00 85 1015.0
20260510005540 55 292 6.1 10.4 0.00 0.00 0.00 85 1015.0
20260510005042 56 310 7.0 10.4 0.00 0.00 0.00 84 1015.1
20260510004551 56 315 7.0 10.4 0.00 0.00 0.00 83 1015.1
20260510004040 56 299 6.1 10.4 0.00 0.00 0.00 82 1014.9
20260510003544 57 304 6.1 10.4 0.00 0.00 0.00 82 1014.8
20260510003051 57 302 6.1 10.4 0.00 0.00 0.00 81 1015.0
20260510002547 57 300 6.1 10.4 0.00 0.00 0.00 81 1014.9
20260510002043 57 305 7.0 10.4 0.00 0.00 0.00 81 1014.9
20260510001554 57 309 6.1 10.4 0.00 0.00 0.00 81 1014.9
20260510001043 58 304 7.0 9.6 0.00 0.00 0.00 80 1014.9
20260510000543 58 300 6.1 9.6 0.00 0.00 0.00 80 1015.0
20260510000051 59 304 5.2 9.6 0.00 0.00 0.00 79 1015.0
20260509235545 59 298 5.2 9.6 0.00 0.00 0.00 78 1015.1
20260509235043 60 309 5.2 9.6 0.00 0.00 0.00 77 1015.1
20260509234547 60 289 4.3 8.7 0.00 0.00 0.00 77 1015.0
20260509234045 60 313 5.2 8.7 0.00 0.00 0.00 77 1015.1
20260509233544 60 304 4.3 7.8 0.00 0.00 0.00 77 1015.0
20260509233046 61 301 4.3 8.7 0.00 0.00 0.00 76 1015.0
20260509232546 61 298 4.3 9.6 0.00 0.00 0.00 76 1015.0
20260509232045 61 286 4.3 11.3 0.00 0.00 0.00 74 1015.1
20260509231559 62 299 5.2 11.3 0.00 0.00 0.00 75 1015.2
20260509231043 62 293 5.2 10.4 0.00 0.00 0.00 75 1015.1
20260509230543 62 286 5.2 10.4 0.00 0.00 0.00 75 1015.2
20260509230054 62 303 5.2 8.7 0.00 0.00 0.00 74 1015.2
20260509225544 62 298 5.2 9.6 0.00 0.00 0.00 75 1015.2
20260509225043 62 292 6.1 9.6 0.00 0.00 0.00 75 1015.2
20260509224557 62 290 5.2 9.6 0.00 0.00 0.00 75 1015.3
20260509224043 61 296 6.1 9.6 0.00 0.00 0.00 76 1015.3
20260509223543 62 292 5.2 8.7 0.00 0.00 0.00 76 1015.3
20260509223049 62 300 6.1 9.6 0.00 0.00 0.00 76 1015.3
20260509222544 62 288 5.2 9.6 0.00 0.00 0.00 76 1015.4
20260509222044 62 298 5.2 9.6 0.00 0.00 0.00 76 1015.4
20260509221551 62 294 5.2 9.6 0.00 0.00 0.00 76 1015.5
20260509221044 62 299 6.1 10.4 0.00 0.00 0.00 76 1015.4
20260509220543 62 301 6.1 10.4 0.00 0.00 0.00 76 1015.5
20260509220055 62 309 6.1 10.4 0.00 0.00 0.00 76 1015.5
20260509215545 62 286 6.1 10.4 0.00 0.00 0.00 76 1015.4
20260509215044 62 296 6.1 10.4 0.00 0.00 0.00 75 1015.4
20260509214554 62 299 6.1 11.3 0.00 0.00 0.00 75 1015.4
20260509214045 63 307 6.1 11.3 0.00 0.00 0.00 75 1015.6
20260509213543 63 294 6.1 10.4 0.00 0.00 0.00 74 1015.6
20260509213056 63 298 5.2 11.3 0.00 0.00 0.00 75 1015.7
20260509212546 63 302 6.1 11.3 0.00 0.00 0.00 75 1015.7
20260509212043 63 305 6.1 10.4 0.00 0.00 0.00 75 1015.7
20260509211551 63 312 5.2 10.4 0.00 0.00 0.00 74 1015.7
20260509211043 63 306 6.1 10.4 0.00 0.00 0.00 75 1015.8
20260509210544 64 298 5.2 9.6 0.00 0.00 0.00 74 1015.9
20260509210107 64 300 5.2 9.6 0.00 0.00 0.00 73 1016.0
20260509205543 64 311 4.3 9.6 0.00 0.00 0.00 73 1016.0